Weather History for Texarkana, AR

Change the Weather History Date:

Saturday, March 30, 2013

  Actual Average Record
Temperature  
Mean Temperature 65 °F 60 °F  
Max Temperature 71 °F 71 °F 92 °F (1929)
Min Temperature 58 °F 48 °F 30 °F (1930)
Degree Days  
Heating Degree Days 0 7  
Month to date heating degree days 388 295  
Since 1 July heating degree days 2334 2489  
Cooling Degree Days 0 1  
Month to date cooling degree days 11 18  
Year to date cooling degree days 15 22  
Growing Degree Days 14 (Base 50)    
Moisture  
Dew Point 60 °F    
Average Humidity 87    
Maximum Humidity 100    
Minimum Humidity 73    
Precipitation  
Precipitation 0.38 in 0.13 in 2.11 in (2002)
Month to date precipitation 1.79 4.05  
Year to date precipitation 7.24 11.44  
Snow  
Snow 0.00 in - - ()
Month to date snowfall 0.0  
Since 1 July snowfall 2.1  
Snow Depth 0.00 in    
Sea Level Pressure  
Sea Level Pressure 30.02 in    
Wind  
Wind Speed 6 mph (SSW)    
Max Wind Speed 13 mph    
Max Gust Speed 18 mph    
Visibility 7 miles    
Events Rain    
T = Trace of Precipitation, MM = Missing Value Source: NWS Daily Summary

Daily Weather History Graph

Daily Weather History Graph

Search for Another Location

Airport:

Trip Planner

Search our weather history database for the weather conditions in past years. The results will help you decide how hot, cold, wet, or windy it might be!

Date:

Astronomy

Mar. 30, 2013 Rise Set
Actual Time 7:05 AM CDT 7:35 PM CDT
Civil Twilight 6:40 AM CDT 8:00 PM CDT
Nautical Twilight 6:11 AM CDT 8:29 PM CDT
Astronomical Twilight 5:41 AM CDT 8:59 PM CDT
Moon 11:30 PM CDT (3/30) 9:12 AM CDT (3/30)
Length of Visible Light 13h 19m
Length of Day
12h 29m
Waning Gibbous, 86% of the Moon is Illuminated
Mar 30
Waning Gibbous
Apr 2
Last Quarter
Apr 10
New
Apr 18
First Quarter
Apr 25
Full

Hourly Weather History & Observations

Time (CDT) Temp. Dew Point Humidity Pressure Visibility Wind Dir Wind Speed Gust Speed Precip Events Conditions
12:53 AM 60.1 °F 60.1 °F 100% 30.10 in 6.0 mi East 4.6 mph - N/A   Clear
1:53 AM 59.0 °F 59.0 °F 100% 30.08 in 4.0 mi ESE 3.5 mph - N/A   Clear
2:53 AM 57.9 °F 57.9 °F 100% 30.05 in 4.0 mi East 4.6 mph - N/A   Clear
3:53 AM 59.0 °F 57.9 °F 96% 30.02 in 6.0 mi East 4.6 mph - N/A   Mostly Cloudy
4:53 AM 60.1 °F 57.9 °F 93% 30.05 in 5.0 mi SSW 3.5 mph - 0.01 in Rain Light Rain
5:53 AM 60.1 °F 59.0 °F 96% 30.06 in 7.0 mi South 3.5 mph - 0.01 in Rain Light Rain
6:53 AM 59.0 °F 59.0 °F 100% 30.04 in 5.0 mi SE 5.8 mph - 0.07 in Rain Light Rain
7:43 AM 59.0 °F 59.0 °F 100% 30.04 in 4.0 mi South 4.6 mph - 0.02 in Rain Light Rain
7:53 AM 59.0 °F 59.0 °F 100% 30.04 in 2.5 mi South 4.6 mph - 0.03 in Rain Light Rain
8:07 AM 59.0 °F 59.0 °F 100% 30.06 in 3.0 mi SSW 5.8 mph - 0.01 in Rain Light Rain
8:11 AM 59.0 °F 59.0 °F 100% 30.06 in 3.0 mi SSW 5.8 mph - 0.02 in Rain Light Rain
8:26 AM 60.8 °F 60.8 °F 100% 30.06 in 2.5 mi SSW 5.8 mph - 0.04 in Rain Rain
8:53 AM 59.0 °F 59.0 °F 100% 30.05 in 3.0 mi SSW 6.9 mph - 0.09 in Rain Light Rain
9:07 AM 59.0 °F 59.0 °F 100% 30.06 in 4.0 mi SSW 6.9 mph - 0.00 in Rain Light Rain
9:18 AM 59.0 °F 59.0 °F 100% 30.06 in 2.0 mi SSW 6.9 mph - 0.02 in Rain Rain
9:46 AM 59.0 °F 59.0 °F 100% 30.06 in 2.0 mi SW 4.6 mph - 0.11 in Rain Rain
9:53 AM 59.0 °F 59.0 °F 100% 30.05 in 2.5 mi SW 5.8 mph - 0.12 in Rain Rain
10:15 AM 59.0 °F 59.0 °F 100% 30.06 in 6.0 mi SW 9.2 mph - 0.04 in Rain Light Rain
10:53 AM 59.0 °F 59.0 °F 100% 30.06 in 10.0 mi WSW 10.4 mph - 0.04 in   Overcast
11:00 AM 59.0 °F 59.0 °F 100% 30.07 in 10.0 mi West 11.5 mph 17.3 mph N/A   Overcast
11:42 AM 60.8 °F 59.0 °F 94% 30.07 in 8.0 mi West 6.9 mph - 0.00 in Rain Light Rain
11:53 AM 60.1 °F 59.0 °F 96% 30.06 in 10.0 mi West 8.1 mph - 0.00 in Rain Light Rain
12:53 PM 63.0 °F 61.0 °F 93% 30.04 in 10.0 mi WSW 8.1 mph - 0.00 in   Overcast
1:22 PM 64.4 °F 60.8 °F 88% 30.04 in 10.0 mi WNW 6.9 mph - N/A   Scattered Clouds
1:53 PM 66.0 °F 60.1 °F 81% 30.03 in 10.0 mi NNW 8.1 mph - 0.01 in   Mostly Cloudy
2:14 PM 64.4 °F 60.8 °F 88% 30.05 in 10.0 mi North 8.1 mph - N/A   Mostly Cloudy
2:33 PM 64.4 °F 60.8 °F 88% 30.03 in 10.0 mi NE 3.5 mph - N/A   Overcast
2:53 PM 64.9 °F 60.1 °F 84% 30.00 in 10.0 mi East 3.5 mph - N/A   Scattered Clouds
3:53 PM 69.1 °F 61.0 °F 75% 29.95 in 10.0 mi South 8.1 mph - N/A   Clear
4:53 PM 70.0 °F 62.1 °F 76% 29.94 in 10.0 mi SSW 6.9 mph - N/A   Mostly Cloudy
5:13 PM 69.8 °F 62.6 °F 78% 29.95 in 10.0 mi WSW 11.5 mph - N/A   Mostly Cloudy
5:53 PM 69.1 °F 62.1 °F 78% 29.94 in 10.0 mi South 9.2 mph - N/A   Overcast
6:53 PM 68.0 °F 62.1 °F 81% 29.94 in 10.0 mi Calm Calm - N/A   Partly Cloudy
7:53 PM 64.9 °F 63.0 °F 93% 29.93 in 10.0 mi SE 3.5 mph - N/A   Clear
8:53 PM 63.0 °F 63.0 °F 100% 29.94 in 6.0 mi SE 5.8 mph - N/A   Partly Cloudy
9:53 PM 64.0 °F 63.0 °F 96% 29.94 in 9.0 mi SSE 5.8 mph - N/A   Clear
10:53 PM 64.0 °F 63.0 °F 96% 29.94 in 8.0 mi South 6.9 mph - N/A   Clear
11:53 PM 63.0 °F 62.1 °F 97% 29.94 in 8.0 mi South 4.6 mph - N/A   Clear